Stündliche Wetter Holomki

Heute, 22 Juni, Dienstag

Zeit Temperatur Niederschläge Wind Luftdruck Luftfeuchtigkeit
00:00 +21°C° 0 mm 2 m/S 757 mmHg 74%
01:00 +21°C° 0 mm 2 m/S 757 mmHg 71%
02:00 +20°C° 0 mm 2 m/S 756 mmHg 67%
03:00 +20°C° 0 mm 2 m/S 756 mmHg 70%
04:00 +21°C° 0 mm 2 m/S 756 mmHg 74%
05:00 +21°C° 0 mm 2 m/S 756 mmHg 77%
06:00 +24°C° 0 mm 2 m/S 756 mmHg 73%
07:00 +26°C° 0 mm 3 m/S 756 mmHg 68%
08:00 +28°C° 0 mm 3 m/S 756 mmHg 63%
09:00 +30°C° 0 mm 4 m/S 756 mmHg 56%
10:00 +32°C° 0 mm 4 m/S 756 mmHg 49%
11:00 +34°C° 0 mm 5 m/S 756 mmHg 43%
12:00 +34°C° 0 mm 5 m/S 756 mmHg 41%
13:00 +34°C° 0 mm 5 m/S 755 mmHg 40%
14:00 +35°C° 0 mm 5 m/S 755 mmHg 38%
15:00 +34°C° 0 mm 4 m/S 755 mmHg 41%
16:00 +34°C° 0 mm 4 m/S 755 mmHg 44%
17:00 +33°C° 0 mm 4 m/S 755 mmHg 47%
18:00 +31°C° 0.1 mm 3 m/S 755 mmHg 55%
19:00 +29°C° 0.1 mm 3 m/S 755 mmHg 63%
20:00 +27°C° 0.1 mm 2 m/S 755 mmHg 70%
21:00 +26°C° 0.5 mm 2 m/S 755 mmHg 75%
22:00 +25°C° 0.5 mm 2 m/S 756 mmHg 80%
23:00 +23°C° 0.5 mm 2 m/S 756 mmHg 85%

Morgen, 23 Juni, Mittwoch

Zeit Temperatur Niederschläge Wind Luftdruck Luftfeuchtigkeit
00:00 +23°C° 0 mm 2 m/S 756 mmHg 87%
01:00 +23°C° 0 mm 2 m/S 756 mmHg 88%
02:00 +21°C° 0 mm 2 m/S 757 mmHg 90%
03:00 +21°C° 0 mm 2 m/S 757 mmHg 89%
04:00 +21°C° 0 mm 2 m/S 757 mmHg 89%
05:00 +23°C° 0 mm 2 m/S 757 mmHg 89%
06:00 +25°C° 0 mm 2 m/S 757 mmHg 79%
07:00 +27°C° 0 mm 2 m/S 757 mmHg 70%
08:00 +29°C° 0 mm 3 m/S 757 mmHg 61%
09:00 +30°C° 0 mm 3 m/S 757 mmHg 55%
10:00 +33°C° 0 mm 3 m/S 757 mmHg 48%
11:00 +34°C° 0 mm 4 m/S 757 mmHg 41%
12:00 +35°C° 0 mm 4 m/S 757 mmHg 38%
13:00 +35°C° 0 mm 4 m/S 757 mmHg 34%
14:00 +36°C° 0 mm 4 m/S 757 mmHg 30%
15:00 +35°C° 0 mm 4 m/S 757 mmHg 33%
16:00 +35°C° 0 mm 3 m/S 756 mmHg 36%
17:00 +35°C° 0 mm 3 m/S 756 mmHg 39%
18:00 +33°C° 0 mm 3 m/S 756 mmHg 49%
19:00 +29°C° 0 mm 2 m/S 756 mmHg 59%
20:00 +27°C° 0 mm 2 m/S 756 mmHg 70%
21:00 +26°C° 0 mm 2 m/S 757 mmHg 72%
22:00 +25°C° 0 mm 2 m/S 757 mmHg 74%
23:00 +24°C° 0 mm 2 m/S 757 mmHg 76%

übermorgen, 24 Juni, Donnerstag

Zeit Temperatur Niederschläge Wind Luftdruck Luftfeuchtigkeit
00:00 +24°C° 0 mm 2 m/S 757 mmHg 78%
01:00 +23°C° 0 mm 2 m/S 757 mmHg 80%
02:00 +23°C° 0 mm 2 m/S 757 mmHg 82%
03:00 +23°C° 0 mm 2 m/S 757 mmHg 83%
04:00 +24°C° 0 mm 1 m/S 757 mmHg 84%
05:00 +24°C° 0 mm 1 m/S 757 mmHg 85%
06:00 +25°C° 0 mm 1 m/S 757 mmHg 81%
07:00 +26°C° 0 mm 2 m/S 757 mmHg 76%
08:00 +28°C° 0 mm 2 m/S 757 mmHg 72%
09:00 +29°C° 0 mm 2 m/S 757 mmHg 66%
10:00 +30°C° 0 mm 2 m/S 757 mmHg 60%
11:00 +32°C° 0 mm 2 m/S 757 mmHg 54%
12:00 +34°C° 0 mm 3 m/S 757 mmHg 51%
13:00 +34°C° 0 mm 3 m/S 756 mmHg 47%
14:00 +35°C° 0 mm 3 m/S 756 mmHg 44%
15:00 +31°C° 1.4 mm 3 m/S 756 mmHg 57%
16:00 +28°C° 1.4 mm 3 m/S 756 mmHg 70%
17:00 +25°C° 1.4 mm 2 m/S 756 mmHg 83%
18:00 +23°C° 7.2 mm 2 m/S 756 mmHg 87%
19:00 +21°C° 7.2 mm 2 m/S 756 mmHg 90%
20:00 +19°C° 7.2 mm 3 m/S 756 mmHg 94%
21:00 +19°C° 0.2 mm 2 m/S 756 mmHg 95%
22:00 +19°C° 0.2 mm 2 m/S 756 mmHg 95%
23:00 +19°C° 0.2 mm 2 m/S 756 mmHg 96%

25 Juni, Freitag

Zeit Temperatur Niederschläge Wind Luftdruck Luftfeuchtigkeit
00:00 +18°C° 0.2 mm 2 m/S 756 mmHg 96%
01:00 +19°C° 0.2 mm 1 m/S 756 mmHg 96%
02:00 +19°C° 0.2 mm 1 m/S 756 mmHg 96%
03:00 +19°C° 0 mm 1 m/S 756 mmHg 95%
04:00 +20°C° 0 mm 1 m/S 756 mmHg 94%
05:00 +20°C° 0 mm 1 m/S 755 mmHg 94%
06:00 +22°C° 0 mm 1 m/S 755 mmHg 87%
07:00 +24°C° 0 mm 1 m/S 755 mmHg 79%
08:00 +25°C° 0 mm 1 m/S 755 mmHg 72%
09:00 +27°C° 0 mm 1 m/S 755 mmHg 66%
10:00 +28°C° 0 mm 1 m/S 755 mmHg 61%
11:00 +30°C° 0 mm 1 m/S 755 mmHg 55%
12:00 +31°C° 0 mm 1 m/S 755 mmHg 53%
13:00 +31°C° 0 mm 1 m/S 755 mmHg 51%
14:00 +32°C° 0 mm 1 m/S 754 mmHg 48%
15:00 +32°C° 0 mm 1 m/S 754 mmHg 50%
16:00 +32°C° 0 mm 1 m/S 754 mmHg 51%
17:00 +32°C° 0 mm 1 m/S 753 mmHg 52%
18:00 +30°C° 0 mm 1 m/S 753 mmHg 60%
19:00 +28°C° 0 mm 1 m/S 753 mmHg 69%
20:00 +27°C° 0 mm 1 m/S 753 mmHg 77%
21:00 +26°C° 0.1 mm 2 m/S 753 mmHg 81%
22:00 +24°C° 0.1 mm 2 m/S 753 mmHg 84%
23:00 +23°C° 0.1 mm 2 m/S 753 mmHg 88%

26 Juni, Samstag

Zeit Temperatur Niederschläge Wind Luftdruck Luftfeuchtigkeit
00:00 +23°C° 0.1 mm 2 m/S 753 mmHg 90%
01:00 +21°C° 0.1 mm 2 m/S 753 mmHg 92%
02:00 +22°C° 0.1 mm 1 m/S 752 mmHg 94%
03:00 +22°C° 0.2 mm 1 m/S 752 mmHg 94%
04:00 +22°C° 0.2 mm 1 m/S 752 mmHg 95%
05:00 +22°C° 0.2 mm 1 m/S 752 mmHg 95%
06:00 +24°C° 0.3 mm 1 m/S 752 mmHg 91%
07:00 +25°C° 0.3 mm 1 m/S 752 mmHg 87%
08:00 +26°C° 0.3 mm 1 m/S 753 mmHg 84%
09:00 +27°C° 0.2 mm 1 m/S 752 mmHg 79%
10:00 +28°C° 0.2 mm 2 m/S 752 mmHg 75%
11:00 +29°C° 0.2 mm 2 m/S 752 mmHg 71%
12:00 +29°C° 0.2 mm 2 m/S 752 mmHg 67%
13:00 +30°C° 0.2 mm 1 m/S 752 mmHg 63%
14:00 +31°C° 0.2 mm 1 m/S 752 mmHg 59%
15:00 +30°C° 0.3 mm 1 m/S 752 mmHg 62%
16:00 +30°C° 0.3 mm 1 m/S 752 mmHg 66%
17:00 +28°C° 0.3 mm 0 m/S 752 mmHg 69%
18:00 +28°C° 0.6 mm 1 m/S 752 mmHg 76%
19:00 +26°C° 0.6 mm 1 m/S 752 mmHg 83%
20:00 +24°C° 0.6 mm 1 m/S 752 mmHg 90%
21:00 +23°C° 0.4 mm 1 m/S 752 mmHg 91%
22:00 +22°C° 0.4 mm 1 m/S 752 mmHg 93%
23:00 +21°C° 0.4 mm 1 m/S 753 mmHg 95%

27 Juni, Sonntag

Zeit Temperatur Niederschläge Wind Luftdruck Luftfeuchtigkeit
00:00 +21°C° 0 mm 1 m/S 753 mmHg 95%
01:00 +20°C° 0 mm 1 m/S 752 mmHg 95%
02:00 +20°C° 0 mm 1 m/S 752 mmHg 95%
03:00 +20°C° 0 mm 1 m/S 753 mmHg 95%
04:00 +21°C° 0 mm 1 m/S 753 mmHg 95%
05:00 +21°C° 0 mm 1 m/S 753 mmHg 95%
06:00 +22°C° 0 mm 1 m/S 753 mmHg 90%
07:00 +24°C° 0 mm 1 m/S 753 mmHg 84%
08:00 +25°C° 0 mm 2 m/S 753 mmHg 79%
09:00 +27°C° 0 mm 2 m/S 753 mmHg 72%
10:00 +28°C° 0 mm 1 m/S 753 mmHg 65%
11:00 +30°C° 0 mm 1 m/S 753 mmHg 59%
12:00 +30°C° 0.1 mm 1 m/S 753 mmHg 56%
13:00 +31°C° 0.1 mm 1 m/S 753 mmHg 54%
14:00 +31°C° 0.1 mm 2 m/S 753 mmHg 52%
15:00 +31°C° 0 mm 2 m/S 753 mmHg 52%
16:00 +31°C° 0 mm 2 m/S 753 mmHg 52%
17:00 +30°C° 0 mm 3 m/S 753 mmHg 53%
18:00 +28°C° 0.1 mm 2 m/S 753 mmHg 60%
19:00 +26°C° 0.1 mm 2 m/S 753 mmHg 67%
20:00 +24°C° 0.1 mm 2 m/S 753 mmHg 74%
21:00 +23°C° 0 mm 2 m/S 754 mmHg 77%
22:00 +21°C° 0 mm 2 m/S 754 mmHg 80%
23:00 +20°C° 0 mm 2 m/S 754 mmHg 83%
Mehr zeigen

Wir brauchen deine Erlaubnis

Meteoprog und unser Service Anbieter werden persönliche Daten aufbewahren, so wie Cookies, Geräte Bezeichnung oder ähnliche Technologien von deinem Gerät und Prozess, so wie Persönliche Daten Inhalte und Werbungen, genauso wie social Media und den Verkehr zu analysieren.

  • Aufbewahrung und/oder Zugang zu deiner Geräte Informationen.

    Cookies, Geräte Bezeichnung oder andere Informationen, können aufbewahrt oder Zugang zu deinem Gerät erhalten, für den Grund, der oben angegeben wird.

  • Personalisierte Werbung und Inhalte, Messungen, Einblick in das Publikum und Produkt Entwicklung.

    Werbungen und Inhalte können personalisiert werden, basierend auf ein Profil. Mehr Daten können besser personalisierte Werbungen und Inhalte hinzufügen. Werbung und Inhalte können gezeigt und gemessen werden. Einblicke über das Publikum, welche die Werbung gesehen haben und den Inhalt, können abgeleitet werden. So wie Daten können genutzt werden, um es zu verbessern oder die Benutzer Erfahrung zu verbessern das System und die Software.

Wenn du “Ich stimme zu” klickst, erlaubst du uns, die Cookies zu benutzen die Geräte Bezeichnung, den Web oder ähnliche Technologien zu benutzen. Deine Settings, können in deinem Gerät bei deinem Browser geändert werden.

Für den bestimmten Zweck, berechtigten Interessen beruhen darauf, mehr als auf den Inhalt. Du kannst mehr darüber in unseren Privaten und Cookie Politik lesen.